Georgetown, SC

10:57 PM EDT on September 30, 2016 (GMT -0400)
Georgetown County

Weather History for KGGE - January, 2012

Change the Weather History Date:

Wednesday, January 4, 2012

  Actual Average Record
Temperature  
Mean Temperature 32 °F -  
Max Temperature 46 °F 60 °F 75 °F (2015)
Min Temperature 19 °F 39 °F 19 °F (2012)
Degree Days  
Heating Degree Days 32    
Moisture  
Dew Point 15 °F    
Average Humidity 53    
Maximum Humidity 86    
Minimum Humidity 20    
Precipitation  
Precipitation 0.00 in - - ()
Sea Level Pressure  
Sea Level Pressure 30.35 in    
Wind  
Wind Speed 3 mph (SSW)    
Max Wind Speed 13 mph    
Max Gust Speed -    
Visibility 10 miles    
Events      
Averages and records for this station are not official NWS values.
T = Trace of Precipitation, MM = Missing Value Source: NWS Daily Summary

Daily Weather History Graph

Daily Weather History Graph

Search for Another Location

Airport or City:

Trip Planner

Search our weather history database for the weather conditions in past years. The results will help you decide how hot, cold, wet, or windy it might be!

Date:

Astronomy

Jan. 04, 2012 Rise Set
Actual Time 7:21 AM EST 5:22 PM EST
Civil Twilight 6:54 AM EST 5:50 PM EST
Nautical Twilight 6:23 AM EST 6:21 PM EST
Astronomical Twilight 5:53 AM EST 6:51 PM EST
Moon 1:43 PM EST (1/4) 3:10 AM EST (1/4)
Length of Visible Light 10h 56m
Length of Day
10h 01m
Waxing Gibbous, 80% of the Moon is Illuminated
Jan 4
Waxing Gibbous
Jan 9
Full
Jan 16
Last Quarter
Jan 23
New
Jan 30
First Quarter

Hourly Weather History & Observations

Time (EST) Temp. Windchill Dew Point Humidity Pressure Visibility Wind Dir Wind Speed Gust Speed Precip Events Conditions
12:15 AM 28.4 °F 24.6 °F 8.6 °F 43% 30.37 in 10.0 mi NW 3.5 mph - N/A   Clear
12:35 AM 28.4 °F 24.6 °F 6.8 °F 40% 30.37 in 10.0 mi NW 3.5 mph - N/A   Clear
12:55 AM 26.6 °F - 10.4 °F 51% 30.37 in 10.0 mi Calm Calm - N/A   Clear
1:15 AM 24.8 °F - 10.4 °F 54% 30.37 in 10.0 mi Calm Calm - N/A   Clear
1:35 AM 23.0 °F - 12.2 °F 63% 30.37 in 10.0 mi Calm Calm - N/A   Clear
1:55 AM 21.2 °F 16.4 °F 12.2 °F 68% 30.38 in 10.0 mi NW 3.5 mph - N/A   Clear
2:15 AM 26.6 °F 22.6 °F 10.4 °F 51% 30.38 in 10.0 mi NW 3.5 mph - N/A   Clear
2:35 AM 26.6 °F - 10.4 °F 51% 30.38 in 10.0 mi Calm Calm - N/A   Clear
2:55 AM 23.0 °F - 12.2 °F 63% 30.38 in 10.0 mi Calm Calm - N/A   Clear
3:15 AM 21.2 °F - 14.0 °F 74% 30.39 in 10.0 mi Calm Calm - N/A   Clear
3:35 AM 21.2 °F - 14.0 °F 74% 30.39 in 10.0 mi Calm Calm - N/A   Clear
3:55 AM 21.2 °F - 14.0 °F 74% 30.39 in 10.0 mi Calm Calm - N/A   Clear
4:15 AM 19.4 °F - 14.0 °F 80% 30.40 in 10.0 mi Calm Calm - N/A   Clear
4:55 AM 19.4 °F - 14.0 °F 80% 30.40 in 10.0 mi Calm Calm - N/A   Clear
5:15 AM 19.4 °F - 14.0 °F 80% 30.41 in 10.0 mi Calm Calm - N/A   Clear
5:35 AM 19.4 °F - 14.0 °F 80% 30.41 in 10.0 mi Calm Calm - N/A   Clear
5:55 AM 19.4 °F - 14.0 °F 80% 30.42 in 10.0 mi Calm Calm - N/A   Clear
6:15 AM 19.4 °F - 14.0 °F 80% 30.42 in 10.0 mi Calm Calm - N/A   Clear
6:35 AM 19.4 °F - 14.0 °F 80% 30.43 in 10.0 mi Calm Calm - N/A   Clear
7:15 AM 19.4 °F - 14.0 °F 80% 30.44 in 10.0 mi Calm Calm - N/A   Clear
7:35 AM 19.4 °F - 14.0 °F 80% 30.43 in 10.0 mi Calm Calm - N/A   Clear
7:55 AM 19.4 °F - 15.8 °F 86% 30.43 in 10.0 mi Calm Calm - N/A   Clear
8:15 AM 23.0 °F - 17.6 °F 80% 30.44 in 10.0 mi Calm Calm - N/A   Clear
8:35 AM 26.6 °F - 21.2 °F 80% 30.45 in 10.0 mi Calm Calm - N/A   Clear
8:55 AM 30.2 °F 26.7 °F 15.8 °F 55% 30.45 in 10.0 mi NNE 3.5 mph - N/A   Clear
9:15 AM 32.0 °F 28.7 °F 14.0 °F 48% 30.45 in 10.0 mi ENE 3.5 mph - N/A   Clear
9:35 AM 32.0 °F 28.7 °F 14.0 °F 48% 30.46 in 10.0 mi ENE 3.5 mph - N/A   Clear
9:55 AM 33.8 °F 30.8 °F 14.0 °F 44% 30.46 in 10.0 mi North 3.5 mph - N/A   Clear
10:15 AM 35.6 °F 32.8 °F 8.6 °F 33% 30.45 in 10.0 mi ESE 3.5 mph - N/A   Clear
10:35 AM 35.6 °F 32.8 °F 6.8 °F 30% 30.45 in 10.0 mi SE 3.5 mph - N/A   Clear
10:55 AM 37.4 °F - 3.2 °F 24% 30.43 in 10.0 mi Calm Calm - N/A   Clear
11:15 AM 39.2 °F - 5.0 °F 24% 30.42 in 10.0 mi Calm Calm - N/A   Clear
11:35 AM 41.0 °F - 5.0 °F 23% 30.40 in 10.0 mi Calm Calm - N/A   Clear
11:55 AM 41.0 °F - 5.0 °F 23% 30.38 in 10.0 mi Calm Calm - N/A   Clear
12:15 PM 42.8 °F - 5.0 °F 21% 30.37 in 10.0 mi Calm Calm - N/A   Clear
12:35 PM 42.8 °F 41.1 °F 5.0 °F 21% 30.35 in 10.0 mi SE 3.5 mph - N/A   Clear
12:55 PM 44.6 °F 43.1 °F 5.0 °F 20% 30.34 in 10.0 mi South 3.5 mph - N/A   Clear
1:15 PM 44.6 °F 41.4 °F 8.6 °F 23% 30.32 in 10.0 mi ESE 5.8 mph - N/A   Clear
1:35 PM 44.6 °F 41.4 °F 12.2 °F 27% 30.31 in 10.0 mi ESE 5.8 mph - N/A   Clear
1:55 PM 44.6 °F 40.2 °F 15.8 °F 31% 30.30 in 10.0 mi ESE 8.1 mph - N/A   Clear
2:15 PM 44.6 °F 40.2 °F 17.6 °F 34% 30.29 in 10.0 mi ESE 8.1 mph - N/A   Clear
2:35 PM 46.4 °F 44.3 °F 17.6 °F 32% 30.28 in 10.0 mi ESE 4.6 mph - N/A   Clear
2:55 PM 46.4 °F 42.4 °F 14.0 °F 27% 30.28 in 10.0 mi SSW 8.1 mph - N/A   Clear
3:15 PM 44.6 °F 39.2 °F 12.2 °F 27% 30.27 in 10.0 mi South 10.4 mph - N/A   Clear
4:15 PM 44.6 °F 38.4 °F 14.0 °F 29% 30.25 in 10.0 mi South 12.7 mph - N/A   Clear
4:55 PM 42.8 °F 38.6 °F 19.4 °F 39% 30.26 in 10.0 mi SW 6.9 mph - N/A   Clear
5:15 PM 41.0 °F 35.2 °F 19.4 °F 42% 30.26 in 10.0 mi SSW 9.2 mph - N/A   Clear
5:35 PM 39.2 °F 33.6 °F 21.2 °F 49% 30.24 in 10.0 mi South 8.1 mph - N/A   Clear
5:55 PM 37.4 °F 33.8 °F 23.0 °F 56% 30.25 in 10.0 mi SSW 4.6 mph - N/A   Clear
6:15 PM 37.4 °F 32.8 °F 23.0 °F 56% 30.24 in 10.0 mi SSW 5.8 mph - N/A   Clear
6:35 PM 35.6 °F 30.7 °F 23.0 °F 60% 30.24 in 10.0 mi SSW 5.8 mph - N/A   Clear
6:55 PM 37.4 °F 32.1 °F 24.8 °F 60% 30.24 in 10.0 mi SW 6.9 mph - N/A   Clear
7:15 PM 35.6 °F 29.9 °F 26.6 °F 70% 30.24 in 10.0 mi SW 6.9 mph - N/A   Clear
7:35 PM 35.6 °F 29.9 °F 24.8 °F 65% 30.24 in 10.0 mi SW 6.9 mph - N/A   Clear
7:55 PM 35.6 °F 28.6 °F 23.0 °F 60% 30.24 in 10.0 mi SW 9.2 mph - N/A   Clear
8:15 PM 35.6 °F 29.2 °F 23.0 °F 60% 30.24 in 10.0 mi SW 8.1 mph - N/A   Clear
8:35 PM 35.6 °F 29.2 °F 23.0 °F 60% 30.24 in 10.0 mi SW 8.1 mph - N/A   Clear
8:55 PM 37.4 °F 31.4 °F 24.8 °F 60% 30.24 in 10.0 mi SW 8.1 mph - N/A   Clear
9:15 PM 37.4 °F 31.4 °F 24.8 °F 60% 30.24 in 10.0 mi SW 8.1 mph - N/A   Clear
9:35 PM 35.6 °F 29.2 °F 24.8 °F 65% 30.23 in 10.0 mi SW 8.1 mph - N/A   Scattered Clouds
9:55 PM 35.6 °F 28.6 °F 24.8 °F 65% 30.22 in 10.0 mi SW 9.2 mph - N/A   Clear
10:15 PM 35.6 °F 29.9 °F 23.0 °F 60% 30.22 in 10.0 mi SW 6.9 mph - N/A   Clear
10:35 PM 35.6 °F 29.2 °F 24.8 °F 65% 30.21 in 10.0 mi SW 8.1 mph - N/A   Clear
10:55 PM 35.6 °F 28.6 °F 24.8 °F 65% 30.21 in 10.0 mi SW 9.2 mph - N/A   Clear
11:15 PM 35.6 °F 28.6 °F 24.8 °F 65% 30.21 in 10.0 mi SW 9.2 mph - N/A   Clear
11:35 PM 35.6 °F 28.6 °F 23.0 °F 60% 30.20 in 10.0 mi WSW 9.2 mph - N/A   Clear
11:55 PM 35.6 °F 28.6 °F 23.0 °F 60% 30.20 in 10.0 mi WSW 9.2 mph - N/A   Clear